Lake Simcoe: Past 24 Hour Conditions

 

Georgian Bay - 45137

06:00 AM EDT 18 October 2018Buoy position: 45.55N 81.0W
Disclaimer

This table is a summary of hourly weather conditions for the past 24 hours.
Please note that these observations might not always be representative of weather conditions over their associated marine area.

Date / Time
(EDT)
Wind(knots) Wave height(m) Wave period(s) Pressure(kPa) Air tempC) Water tempC)
18 October 2018
6:00 NW 12 gust 16 0.6 4.0 102.9 1 10
5:00 NNW 14 gust 18 0.8 4.0 102.9 1 10
4:00 NNW 14 gust 21 0.8 4.0 102.9 1 10
3:00 NNW 14 gust 18 0.9 4.0 102.8 1 10
2:00 N 14 gust 21 1.0 4.0 102.8 2 10
1:00 N/A N/A N/A N/A N/A N/A
0:00 NNW 19 gust 23 1.3 5.0 102.6 2 10
17 October 2018
23:00 N 19 gust 23 1.4 5.0 102.5 3 10
22:00 N 21 gust 27 1.4 5.0 102.4 3 10
21:00 N 19 N/A N/A N/A 4 N/A
20:00 N 19 gust 27 1.4 5.0 102.1 5 10
19:00 NNW 19 gust 25 1.4 5.0 101.9 5 10
18:00 NW 19 gust 27 1.5 5.0 101.8 5 10
17:00 NW 23 gust 29 1.3 5.0 101.7 6 10
16:00 NW 21 gust 29 1.2 5.0 101.6 5 10
15:00 WNW 19 gust 25 1.2 5.0 101.6 5 10
14:00 NW 21 gust 25 1.3 5.0 101.5 5 11
13:00 NW 21 gust 25 1.4 5.0 101.5 4 11
12:00 WNW 21 gust 27 1.3 5.0 101.4 5 11
11:00 NW 21 gust 27 1.4 5.0 101.3 4 11
10:00 NW 19 gust 23 1.4 5.0 101.3 5 11
9:00 NW 23 gust 27 1.5 5.0 101.2 5 11
8:00 NNW 21 gust 25 1.6 5.0 101.1 5 11
7:00 WNW 23 N/A N/A N/A N/A N/A
6:00 WNW 23 gust 27 1.6 5.0 101.0 6 11

Zoom-in to make a selection

Map of Great Lakes - Lake Erie and Lake Ontario marine weather areas N Huron - 45003 W Erie - 45005 S Huron - 45008 Lake Ontario - 45012 Port Stanley - 45132 Prince Edward Point - 45135 Georgian Bay - 45137 Grimsby - 45139 Port Colborne - 45142 South Georgian Bay - 45143 Lake St Clair - 45147 South Lake Huron - 45149 Lake Simcoe - 45151 Lake Nipissing - 45152 North Channel - 45154 Ajax - 45159 Sault Ste. Marie Airport Killarney Greater Sudbury Airport North Bay Airport Gore Bay-Manitoulin Airport Great Duck Island Brockville Grenadier Island Kingston Airport Collingwood Lagoon City Muskoka Airport Parry Sound Harbour Lake Simcoe Regional Airport Wiarton Airport Western Islands Cove Island Goderich Sarnia Chris Hadfield Airport Tobermory Harrow AAFC Long Point Port Weller St. Catharines Airport Southeast Shoal Vineland Station Welland-Pelham Windsor Airport Port Colborne Erieau Point Pelee Burlington Lift Bridge Cobourg Hamilton Munro Int'l Airport Oshawa Executive Airport Point Petre Toronto City Centre Airport CFB Trenton Peterborough Municipal Airport
Legend:
buoy Buoy
land station Land Station

Great Lakes - Lake Erie and Lake Ontario Area

Another Region

What we are doing

Date modified: